Home > Weather > Lahti > Past weeks

Flag for Finland Past Weather in Lahti, Finland — Yesterday and Last 2 Weeks

Now
70 °F

Mild.


Feels Like: 70 °F
Forecast: 59 / 77 °F
Wind: 3 mph from East

Location: Utti

Current Time: Jul 23, 2016 at 4:21:38 PM

Latest Report: Jul 23, 2016 at 3:50 PM


Visibility: N/A

Pressure: 30.09 "Hg

Humidity: 73%

Dew Point: 61 °F

Location of LahtiLocation

Past Weather in Lahti — Graph

°F

Lahti Temperature Yesterday

Maximum temperature yesterday: 66 °F (at 2:20 PM)
Minimum temperature yesterday: 59 °F (at 6:20 AM)
Average temperature yesterday: 63 °F

High & Low Weather Summary for the Past Weeks

 TemperatureHumidityPressure
High73 °F (Jul 16, 5:20 PM)100% (Jul 9, 3:50 AM)30.09 "Hg (Jul 9, 3:50 AM)
Low52 °F (Jul 11, 3:50 AM)38% (Jul 19, 3:20 PM)29.47 "Hg (Jul 12, 5:20 AM)
Average62 °F78%29.79 "Hg
* Reported Jul 8 3:20 PM — Jul 23 3:20 PM, Lahti, Weather by CustomWeather, © 2016

Note: Actual official high and low records may vary slightly from our data, if they occured in-between our weather recording intervals... More about our weather records

Advertising

Lahti Weather History for the Previous 24 Hours

Scroll right to see more
 ConditionsComfort  
Time TempWeatherWind HumidityBarometerVisibility
3:20 PM
Sat, Jul 23
70 °FMild.5 mph73%30.09 "HgN/A
2:50 PM68 °FMild.5 mph78%30.09 "HgN/A
2:20 PM68 °FMild.2 mph78%30.09 "HgN/A
1:50 PM68 °FMild.3 mph78%30.09 "HgN/A
1:20 PM68 °FMild.2 mph78%30.09 "HgN/A
12:50 PM68 °FMild.5 mph78%30.09 "HgN/A
12:20 PM68 °FMild.5 mph83%30.09 "HgN/A
11:50 AM66 °FMild.5 mph83%30.09 "HgN/A
11:20 AM66 °FMild.5 mph83%30.09 "HgN/A
10:50 AM66 °FMild.2 mph83%30.09 "HgN/A
10:20 AM64 °FMild.5 mph88%30.09 "HgN/A
9:50 AM64 °FMild.3 mph88%30.09 "HgN/A
9:20 AM64 °FMild.5 mph88%30.09 "HgN/A
8:50 AM64 °FMild.6 mph88%30.09 "HgN/A
8:20 AM63 °FMild.3 mph94%30.09 "HgN/A
7:50 AM63 °FMild.3 mph94%30.09 "HgN/A
7:20 AM63 °FMild.3 mph94%30.07 "HgN/A
6:50 AM63 °FMild.3 mph94%30.07 "HgN/A
6:20 AM63 °FMild.2 mph94%30.07 "HgN/A
5:50 AM63 °FMild.3 mph94%30.07 "HgN/A
5:20 AM63 °FMild.3 mph94%30.07 "HgN/A
4:50 AM63 °FMild.3 mph94%30.07 "HgN/A
4:20 AM63 °FMild.3 mph94%30.07 "HgN/A
3:50 AM63 °FMild.3 mph94%30.07 "HgN/A
3:20 AM63 °FMild.3 mph94%30.07 "HgN/A
2:50 AM63 °FMild.5 mph94%30.07 "HgN/A
2:20 AM63 °FMild.3 mph94%30.07 "Hg4 mi
1:50 AM63 °FMild.3 mph94%30.07 "HgN/A
1:20 AM63 °FMild.2 mph94%30.07 "HgN/A
12:50 AM63 °FMild.2 mph94%30.07 "HgN/A
12:20 AM63 °FMild.2 mph94%30.07 "HgN/A
11:50 PM
Fri, Jul 22
63 °FMild.5 mph94%30.07 "HgN/A
11:20 PM63 °FMild.2 mph88%30.07 "HgN/A
10:50 PM63 °FMild.2 mph88%30.07 "HgN/A
10:20 PM63 °FMild.3 mph88%30.07 "HgN/A
9:50 PM63 °FMild.2 mph88%30.07 "HgN/A
9:20 PM63 °FMild.3 mph88%30.07 "HgN/A
8:50 PM64 °FMild.6 mph83%30.07 "HgN/A
8:20 PM64 °FMild.6 mph83%30.07 "HgN/A
7:50 PM64 °FMild.5 mph83%30.07 "HgN/A
7:20 PM64 °FMild.6 mph83%30.07 "HgN/A
6:50 PM64 °FMild.8 mph83%30.07 "HgN/A
6:20 PM64 °FMild.8 mph83%30.07 "HgN/A
5:50 PM64 °FMild.8 mph83%30.04 "HgN/A
5:20 PM66 °FMild.7 mph78%30.04 "HgN/A
4:50 PM66 °FMild.7 mph78%30.04 "HgN/A
4:20 PM66 °FMild.7 mph78%30.04 "HgN/A
Weather by CustomWeather, © 2016

See weather overviewHow to use our weather pages